Location: Lac Lasalle
(46.0398°N, 74.1576°W)
Time: 17:52:37
(UTC-05:00)

SEEDS - Pass Details

Date: 15 December 2019
Orbit: 586 x 603 km, 97.5° (Epoch: 21 January)

Event Time Altitude Azimuth Distance (km) Brightness Sun altitude
Rises 04:30:49 0° 33° (NNE) 2,856 ? -30.3°
Reaches altitude 10° 04:34:19 10° 64° (ENE) 1,949 ? -29.7°
Maximum altitude 04:36:03 12° 88° (E) 1,801 ? -29.4°
Drops below altitude 10° 04:37:47 10° 113° (ESE) 1,945 ? -29.1°
Sets 04:41:15 0° 144° (SE) 2,843 ? -28.5°
